Location: Limerick
(52.6800°N, 8.6400°W)
Time: 05:51:24
(UTC+01:00)

Sapphire - Visible Passes

Search period start: 28 July 2016 00:00
Search period end: 07 August 2016 00:00
Orbit: 786 x 796 km, 67.1° (Epoch: 27 July)

Date Brightness Start Highest point End Pass type
(mag) Time Alt. Az. Time Alt. Az. Time Alt. Az.
28 Jul ? 00:12:54 10° WNW 00:16:49 20° NNW 00:20:45 10° NNE visible
28 Jul ? 01:58:16 10° NNW 02:02:13 20° NNE 02:06:10 10° ENE visible
28 Jul ? 03:41:53 10° NNW 03:47:04 41° NE 03:52:11 10° ESE visible
28 Jul ? 23:41:47 10° WNW 23:45:53 21° NNW 23:49:59 10° NNE visible
29 Jul ? 01:27:27 10° NW 01:31:16 19° N 01:35:04 10° NE visible
29 Jul ? 03:11:15 10° NNW 03:16:16 35° NE 03:21:15 10° E visible
29 Jul ? 04:54:40 10° NW 05:00:05 67° WSW 05:05:27 10° SSE visible
29 Jul ? 23:10:40 10° WNW 23:14:58 23° NNW 23:19:16 10° NNE visible
30 Jul ? 00:56:36 10° NW 01:00:19 18° N 01:04:01 10° NE visible
30 Jul ? 02:40:38 10° NNW 02:45:26 30° NNE 02:50:13 10° E visible
30 Jul ? 04:24:00 10° NW 04:29:28 84° SW 04:34:54 10° SSE visible
30 Jul ? 22:39:34 10° W 22:44:04 25° NNW 22:48:35 10° NNE visible
31 Jul ? 00:25:41 10° NW 00:29:21 18° N 00:33:01 10° NE visible
31 Jul ? 02:09:58 10° NNW 02:14:35 27° NNE 02:19:10 10° E visible
31 Jul ? 03:53:21 10° NW 03:58:49 79° NE 04:04:15 10° SE visible
31 Jul ? 22:08:30 10° W 22:13:13 29° NNW 22:17:56 10° NNE visible
31 Jul ? 23:54:42 10° NW 23:58:23 18° N 00:02:04 10° NE visible
01 Aug ? 01:39:19 10° NNW 01:43:42 24° NNE 01:48:05 10° ENE visible
01 Aug ? 03:22:42 10° NW 03:28:08 64° NE 03:33:32 10° SE visible
01 Aug ? 05:06:35 10° NW 05:11:14 30° WSW 05:15:52 10° S visible
01 Aug ? 23:23:40 10° NW 23:27:25 18° N 23:31:11 10° NE visible
02 Aug ? 01:08:37 10° NNW 01:12:48 22° NNE 01:16:58 10° ENE visible
02 Aug ? 02:52:05 10° NW 02:57:25 52° NE 03:02:43 10° ESE visible
02 Aug ? 04:35:45 10° NW 04:40:44 38° WSW 04:45:42 10° S visible
02 Aug ? 22:52:36 10° WNW 22:56:28 19° NNW 23:00:21 10° NE visible
03 Aug ? 00:37:52 10° NNW 00:41:52 20° NNE 00:45:51 10° ENE visible
03 Aug ? 02:21:27 10° NNW 02:26:40 43° NE 02:31:50 10° ESE visible
03 Aug ? 04:04:58 10° NW 04:10:13 49° WSW 04:15:24 10° SSE visible
03 Aug ? 22:21:28 10° WNW 22:25:32 21° NNW 22:29:35 10° NNE visible
04 Aug ? 00:07:05 10° NW 00:10:56 19° N 00:14:46 10° NE visible
04 Aug ? 01:50:50 10° NNW 01:55:53 37° NE 02:00:54 10° ESE visible
04 Aug ? 03:34:16 10° NW 03:39:39 63° WSW 03:44:59 10° SSE visible
04 Aug ? 23:36:15 10° NW 23:39:58 18° N 23:43:41 10° NE visible
05 Aug ? 01:20:12 10° NNW 01:25:04 32° NNE 01:29:54 10° E visible
05 Aug ? 03:03:35 10° NW 03:09:02 79° SW 03:14:02 12° SSE visible
05 Aug ? 04:48:20 10° WNW 04:51:38 17° WSW 04:54:38 11° SW visible
05 Aug ? 23:05:20 10° NW 23:09:00 18° N 23:12:40 10° NE visible
06 Aug ? 00:49:34 10° NNW 00:54:13 28° NNE 00:58:51 10° E visible
06 Aug ? 02:32:55 10° NW 02:38:24 83° NE 02:42:42 17° SE visible
06 Aug ? 04:17:11 10° WNW 04:21:12 22° WSW 04:23:20 17° SW visible
06 Aug ? 22:34:22 10° NW 22:38:02 18° N 22:41:43 10° NE visible
